This is the latest recevied weather packets stored in our database for station/object KD0RII. If no packets are shown the sender has not sent any weather packets the latest 10 day(s).
| Time | Temp. | Humidity | Pressure | Rain* | Wind** | Luminosity | Snow |
|---|---|---|---|---|---|---|---|
| 1777521428 | 6.11° C | 89% | 1021.1 hPa | 0 mm | - | 0 W/m² | - |
| 1777521125 | 5.56° C | 89% | 1021.1 hPa | 0 mm | - | 0 W/m² | - |
| 1777520823 | 5.56° C | 89% | 1021 hPa | 0 mm | - | 0 W/m² | - |
| 1777520520 | 5.56° C | 89% | 1020.9 hPa | 0 mm | - | 0 W/m² | - |
| 1777520216 | 6.11° C | 88% | 1021.1 hPa | 0 mm | - | 0 W/m² | - |
| 1777519914 | 6.11° C | 88% | 1021.1 hPa | 0 mm | - | 0 W/m² | - |
| 1777519611 | 6.11° C | 88% | 1021 hPa | 0 mm | - | 0 W/m² | - |
| 1777519307 | 6.11° C | 88% | 1021.1 hPa | 0 mm | - | 0 W/m² | - |
| 1777519003 | 6.11° C | 87% | 1021.1 hPa | 0 mm | - | 0 W/m² | - |
| 1777518700 | 6.67° C | 87% | 1020.9 hPa | 0 mm | - | 0 W/m² | - |
| 1777518397 | 6.67° C | 87% | 1020.9 hPa | 0 mm | - | 0 W/m² | - |
| 1777518092 | 6.67° C | 86% | 1020.7 hPa | 0 mm | - | 0 W/m² | - |
| 1777517789 | 6.67° C | 86% | 1020.8 hPa | 0 mm | - | 0 W/m² | - |
| 1777517484 | 6.67° C | 85% | 1020.6 hPa | 0 mm | - | 0 W/m² | - |
| 1777517183 | 6.67° C | 84% | 1020.7 hPa | 0 mm | - | 0 W/m² | - |
| 1777516881 | 7.22° C | 83% | 1020.7 hPa | 0 mm | - | 0 W/m² | - |
| 1777516578 | 7.22° C | 83% | 1020.7 hPa | 0 mm | - | 0 W/m² | - |
| 1777516274 | 7.22° C | 82% | 1020.8 hPa | 0 mm | - | 0 W/m² | - |
| 1777515970 | 7.78° C | 81% | 1020.8 hPa | 0 mm | - | 0 W/m² | - |
| 1777515667 | 7.78° C | 80% | 1020.5 hPa | 0 mm | - | 0 W/m² | - |
| 1777515364 | 8.33° C | 79% | 1020.6 hPa | 0 mm | - | 0 W/m² | - |
| 1777515059 | 8.33° C | 78% | 1020.4 hPa | 0 mm | - | 0 W/m² | - |
| 1777514755 | 8.89° C | 76% | 1020.3 hPa | 0 mm | - | 0 W/m² | - |
| 1777514453 | 8.89° C | 74% | 1020.4 hPa | 0 mm | - | 0 W/m² | - |
| 1777514150 | 9.44° C | 72% | 1020.3 hPa | 0 mm | - | 0 W/m² | - |
* Rain latest hour (hover to see other rain measurements)
** Current wind speed in m/s (hover to see current wind gust speed)